RH
8 7 9 26 44 43 35 34 35 38 41 44 47 48 45 38 32 29 26 26 25 25 25 24 23 22 22 22 22 21 22 25 29 33 37 41 42 41 33 18 15 16 14 17 25 34 40 47 59 61 61 71 84 97 100 96 96 96 94 94 94 90 85 81 73 68 66 59 53 52 56 60 64 67 68 73 74 65 56 49 43 38 34 32 30 29
8 6 11 28 37 33 33 37 39 41 42 41 39 43 46 42 36 32 28 26 26 25 24 24 23 22 22 21 21 20 21 22 21 23 26 29 32 30 25 17 15 16 16 20 27 33 36 42 52 56 56 60 67 79 86 86 87 81 75 83 92 90 90 92 84 75 71 67 58 54 64 67 65 69 76 79 71 55 47 44 40 37 35 34 33 31
7 8 17 27 26 26 32 37 40 43 40 36 33 36 42 43 40 36 33 28 26 26 25 25 23 22 22 21 21 21 21 21 20 20 20 21 23 21 19 18 17 17 17 19 25 31 36 43 53 56 51 48 52 57 62 66 71 68 61 68 83 87 88 90 89 82 74 69 60 54 66 76 74 77 84 83 71 56 49 46 44 42 41 39 35 31
8 13 22 23 23 27 32 36 38 38 34 32 30 31 38 44 42 39 39 35 30 29 26 25 25 23 23 21 21 22 21 21 20 19 19 19 19 19 19 18 18 18 19 22 27 34 42 47 54 58 49 39 38 43 48 50 53 56 55 56 66 79 87 87 82 78 72 67 62 56 59 70 82 88 89 87 80 71 62 53 49 46 43 39 33 27
11 18 21 18 21 29 34 37 38 37 36 34 31 30 36 43 43 40 42 40 36 34 31 28 26 24 24 22 22 22 21 21 20 19 19 19 18 18 19 19 19 18 18 24 30 39 49 51 55 61 50 32 29 37 44 45 44 47 50 52 55 65 81 89 83 78 75 70 66 63 59 60 75 88 90 88 82 78 72 61 52 48 43 38 31 26
14 21 19 16 23 30 34 39 44 44 42 39 36 34 36 41 44 42 42 42 40 37 36 33 30 26 24 23 23 23 22 20 20 20 19 19 19 18 19 18 18 18 19 24 35 47 53 53 58 60 45 29 27 34 39 42 44 45 45 47 49 53 63 78 86 88 86 81 73 70 66 58 59 69 77 80 76 71 67 60 54 50 45 40 34 28
20 26 20 19 28 33 38 45 50 51 47 44 43 42 40 40 42 42 42 43 40 38 38 36 34 29 25 25 24 23 23 20 19 21 20 20 19 19 21 20 20 22 23 31 44 53 53 55 57 57 58 57 50 44 41 40 43 46 46 45 45 46 49 60 80 95 96 91 85 78 73 65 55 51 55 62 65 62 57 54 53 52 50 45 36 29
29 30 25 27 33 38 45 52 54 54 51 49 49 48 43 40 41 43 43 41 39 37 36 37 37 32 27 28 28 24 25 24 25 30 30 26 23 23 24 24 27 27 27 36 48 53 55 56 50 49 67 79 66 49 42 39 40 48 55 51 44 42 46 57 75 96 102 98 94 88 80 72 61 49 46 49 53 52 49 50 55 59 59 52 38 31
33 31 31 36 40 44 51 54 52 52 51 49 49 48 45 43 43 44 42 40 39 36 34 33 35 32 27 29 29 26 28 32 36 41 41 37 33 33 33 32 33 33 34 41 50 52 52 51 45 40 50 61 56 46 43 39 37 47 55 52 49 50 59 75 87 96 102 99 94 90 83 74 63 52 47 48 48 48 50 56 66 71 69 60 43 32
34 32 33 37 43 48 51 51 50 50 47 45 45 45 45 44 42 41 40 38 37 35 34 30 29 30 28 29 30 28 32 39 43 43 43 43 42 42 43 42 40 39 41 47 52 51 46 41 42 44 48 53 50 43 42 41 40 49 52 53 64 66 64 77 93 99 101 98 96 92 81 70 62 54 49 47 47 50 54 62 75 77 72 67 50 34
35 36 33 36 44 49 48 47 48 47 44 43 43 42 42 42 41 40 37 35 34 34 33 28 26 29 28 29 31 32 36 40 44 44 42 44 46 47 48 48 48 47 47 52 53 51 47 38 34 41 50 54 52 47 45 45 47 50 47 51 69 75 64 64 78 95 102 100 100 98 86 72 62 55 51 48 49 53 55 60 68 63 61 67 54 34
35 36 36 39 45 46 46 46 45 44 42 42 41 39 40 40 40 38 34 31 30 31 28 26 33 36 28 30 37 38 40 42 44 45 43 44 46 47 50 52 52 50 49 52 53 52 51 40 30 36 46 50 54 56 51 48 48 45 39 41 56 70 70 61 65 86 100 100 100 100 95 83 69 60 55 53 53 54 53 54 53 49 60 72 55 32
36 38 41 43 44 44 44 44 42 41 40 38 38 38 39 41 41 38 35 31 26 28 24 24 45 49 32 35 47 45 43 45 46 46 43 43 43 45 50 52 52 52 49 48 49 49 43 32 27 34 44 49 52 54 50 44 40 36 35 37 43 54 62 59 64 83 96 99 99 100 98 89 77 68 62 59 57 52 52 54 54 60 74 74 49 30
40 42 44 44 44 44 44 43 43 44 42 39 43 47 47 48 48 44 41 35 26 26 22 22 48 54 37 42 53 49 47 47 47 47 44 41 41 42 43 46 50 51 47 44 43 40 35 33 36 41 52 60 56 50 47 41 34 32 37 44 45 46 53 59 68 84 94 99 99 99 97 89 81 75 68 65 61 58 58 58 61 73 80 65 42 31
40 43 45 46 47 47 48 49 53 56 54 53 55 60 59 55 54 55 55 48 35 31 25 25 46 52 40 49 59 53 50 49 46 46 43 40 39 37 36 40 45 45 45 45 42 35 33 42 49 51 61 69 63 53 46 40 36 33 36 45 49 51 58 61 67 82 94 99 99 96 94 89 85 82 77 73 70 67 65 62 69 83 79 57 40 32
40 43 45 47 48 51 56 59 63 64 63 64 61 57 54 52 55 57 56 48 40 38 31 27 42 50 45 56 67 61 55 52 48 45 43 41 39 38 41 45 48 49 46 40 36 37 39 42 46 55 66 72 69 61 50 43 39 35 34 38 41 48 56 58 63 75 85 92 93 91 89 86 85 86 84 82 79 74 70 72 84 90 76 54 41 34
40 44 46 45 45 50 57 62 67 67 66 66 60 50 50 55 59 58 51 42 35 37 37 30 33 46 54 65 73 68 60 57 54 49 47 46 45 45 47 48 49 48 45 43 44 49 45 35 38 54 65 68 66 58 50 45 40 37 37 37 38 42 48 54 61 67 76 84 85 81 78 77 80 89 93 90 86 80 78 79 81 79 66 52 43 36
40 44 47 44 44 48 53 61 67 66 64 65 61 57 59 60 55 47 45 41 32 32 39 36 32 39 57 71 72 69 67 64 61 58 56 56 56 56 53 51 49 41 42 51 57 59 51 34 36 54 62 65 61 51 47 46 43 41 40 40 42 43 50 59 66 72 80 83 81 78 74 70 74 89 97 93 89 83 78 76 73 68 60 53 45 39
40 45 48 44 45 47 47 55 66 69 62 62 68 73 74 73 65 53 44 38 32 29 30 34 33 34 49 66 70 69 69 65 64 65 65 65 63 59 55 60 63 55 55 57 57 71 72 46 39 55 67 71 65 56 55 54 50 48 46 44 44 46 56 64 66 75 85 88 88 83 75 66 64 80 95 96 91 83 74 74 77 76 72 68 59 48
40 46 52 47 44 47 47 50 67 80 71 61 66 73 75 78 78 71 60 46 39 35 27 26 29 29 40 57 66 70 69 64 63 62 60 58 53 48 50 63 69 63 65 66 64 84 94 64 46 58 68 70 66 61 65 65 59 55 52 51 53 57 65 67 69 81 91 94 91 79 65 56 55 75 96 98 89 78 68 68 71 71 71 73 72 64
44 47 54 52 44 51 57 56 66 81 79 70 67 66 70 76 74 69 66 58 50 44 36 29 24 25 34 45 54 65 67 62 59 55 50 46 42 45 55 68 72 65 66 76 80 90 95 77 66 70 72 70 68 65 65 68 70 69 65 62 68 80 85 81 85 95 94 87 78 64 52 49 54 69 80 77 70 60 52 54 59 60 62 68 75 77
51 48 54 57 49 51 60 60 63 69 73 76 72 62 63 74 75 67 61 59 56 51 42 33 28 30 36 41 44 54 60 61 60 55 48 41 38 45 55 63 75 83 86 93 97 92 87 82 81 83 81 79 79 73 70 73 78 83 81 73 77 90 91 86 92 96 86 76 67 56 46 42 44 49 52 55 54 46 38 43 56 63 67 72 78 78
54 47 53 61 55 51 56 57 58 59 62 70 73 64 57 60 62 58 55 61 67 63 52 42 38 37 38 41 43 49 55 58 59 52 44 40 36 47 68 73 75 85 90 91 94 91 85 84 87 88 86 86 87 81 74 71 71 80 86 79 76 80 77 78 89 89 80 75 70 65 58 48 39 37 43 51 54 49 41 42 54 65 67 72 77 76
62 54 58 66 60 52 54 56 54 53 56 63 67 62 55 50 47 47 57 71 76 72 64 56 50 45 42 41 43 48 51 52 54 51 50 54 48 54 81 94 87 86 87 85 87 87 82 78 77 76 75 76 80 80 79 71 64 74 83 75 69 73 74 79 87 84 79 79 78 77 74 65 55 48 47 51 56 60 58 53 57 64 64 65 68 69
79 72 72 74 65 54 52 54 52 47 49 59 64 60 55 51 45 45 58 73 76 74 69 63 60 55 50 44 40 44 52 56 58 60 63 65 55 52 71 89 88 81 74 72 75 76 73 71 69 65 65 71 72 71 77 77 71 78 86 75 66 70 76 83 86 84 81 80 81 83 81 74 67 62 60 61 63 68 72 70 69 70 71 70 70 69
91 88 85 82 74 61 52 49 51 49 48 54 63 64 59 56 53 48 51 59 66 70 71 67 65 65 61 53 46 49 59 61 58 62 71 67 58 63 78 89 89 78 68 69 75 76 74 73 71 65 61 67 70 70 80 88 86 88 90 81 73 71 73 79 85 88 89 90 92 94 89 75 60 57 62 64 63 63 69 76 78 80 82 82 81 76
95 94 89 87 85 79 66 55 53 55 54 55 62 69 68 67 66 58 50 46 47 57 69 70 67 67 68 66 61 57 58 57 53 63 77 74 71 82 92 96 99 92 82 77 76 75 74 70 71 70 67 70 74 78 91 99 98 95 90 86 83 76 71 74 82 89 92 94 95 92 84 67 52 52 58 60 62 66 71 75 80 85 87 87 86 82
96 98 93 89 90 88 82 71 60 57 60 60 62 70 77 80 79 73 65 54 42 46 61 67 64 65 68 71 72 68 61 58 60 68 76 77 81 89 88 90 97 94 84 79 74 71 72 72 71 72 77 83 82 82 90 96 97 95 89 86 85 79 76 79 80 79 80 84 87 84 75 64 57 58 61 63 72 84 89 86 84 87 92 91 88 83
89 95 95 91 89 86 88 86 72 60 60 61 63 68 74 80 81 78 77 72 61 55 54 53 56 64 71 79 86 84 76 72 73 75 78 80 86 87 82 84 89 82 76 80 79 74 74 76 73 68 70 77 79 81 89 94 94 93 91 88 83 80 85 91 84 74 72 78 85 87 84 79 74 73 76 81 85 90 95 96 95 96 97 97 92 85
85 90 90 88 89 89 94 97 87 73 65 61 62 62 64 70 72 70 70 72 74 72 64 56 54 56 67 82 93 91 83 78 77 79 83 86 88 88 86 84 81 72 64 63 66 67 67 66 63 61 62 67 76 86 92 90 87 89 91 88 84 85 89 92 87 78 74 76 80 87 91 86 79 79 87 93 93 90 88 89 93 93 92 95 93 82
89 93 90 87 88 89 92 95 90 84 78 72 68 62 58 63 68 70 70 70 74 78 76 70 61 52 54 69 81 80 75 72 73 77 82 86 87 90 90 82 70 62 57 54 52 50 51 52 51 53 57 63 73 81 80 77 77 80 83 82 81 81 78 77 79 76 72 74 79 86 90 81 70 75 84 85 82 78 70 65 66 68 77 91 91 78
90 95 94 91 90 87 86 87 84 82 84 85 81 72 63 60 64 70 74 76 81 84 82 79 72 62 57 61 63 62 64 71 76 78 81 82 80 78 75 68 59 57 61 68 66 54 46 46 46 49 54 62 70 74 74 75 75 76 79 77 73 72 69 70 75 73 68 68 69 72 80 79 72 72 78 79 74 68 64 61 60 63 77 91 90 80
85 91 92 87 89 91 88 86 86 86 88 91 90 87 79 70 67 69 71 74 80 83 84 85 82 76 74 74 68 59 59 67 73 75 79 82 77 71 65 59 55 54 57 65 73 71 61 52 49 54 62 67 70 71 73 75 76 78 80 78 73 70 69 70 74 73 68 63 57 54 61 70 73 74 76 76 73 70 66 64 64 70 83 93 89 78
87 91 93 86 88 97 97 93 93 93 94 95 96 97 94 86 81 82 82 80 79 79 81 82 79 80 87 94 90 78 69 67 67 68 72 75 74 73 71 68 64 61 60 62 71 79 79 73 71 77 84 83 78 75 73 72 76 81 83 82 77 72 71 70 71 70 66 60 55 50 49 52 60 71 78 75 71 70 62 53 58 75 89 93 84 66
98 99 99 93 90 95 98 98 99 98 98 100 99 97 95 91 89 91 93 91 89 88 86 80 74 75 85 95 99 95 86 81 80 77 71 68 69 70 73 75 72 69 72 78 84 89 93 91 86 87 93 91 84 81 79 77 80 82 82 80 75 69 67 67 65 63 59 54 50 48 48 46 47 58 70 73 72 68 54 47 64 83 84 74 58 44
100 102 100 94 89 88 89 91 93 93 93 95 98 95 89 86 86 84 84 87 91 95 97 91 80 73 75 83 90 90 87 86 91 91 81 72 72 77 82 83 75 70 75 86 91 93 94 93 87 86 91 90 83 81 82 83 84 82 78 75 72 69 68 66 63 60 56 53 50 47 46 44 41 44 53 62 64 57 44 48 66 74 63 47 36 33
85 93 95 88 83 82 82 80 79 80 79 80 88 95 93 88 85 83 84 86 89 94 97 95 89 80 72 73 79 83 83 83 87 93 93 90 90 93 96 92 81 78 84 89 90 90 91 92 92 93 94 91 83 78 77 81 87 87 81 76 74 75 75 73 68 62 56 52 50 47 45 44 43 41 42 44 46 42 39 44 51 50 42 35 31 31
52 65 75 76 72 69 69 67 64 66 66 64 70 87 98 98 94 94 96 96 95 96 95 91 88 83 74 74 82 89 91 90 89 87 86 90 95 97 98 94 86 87 93 90 86 90 93 91 93 95 93 90 84 77 76 82 92 94 90 87 86 83 82 81 76 71 65 60 55 52 50 47 45 45 45 46 46 47 47 45 45 47 49 50 49 48
32 36 46 52 54 54 59 64 64 63 64 61 61 74 92 100 100 99 100 101 100 100 99 94 92 88 80 79 85 89 93 97 97 90 82 82 89 90 91 91 88 91 96 90 84 88 92 93 96 97 95 94 91 86 85 89 95 96 94 96 98 93 88 91 91 87 84 81 76 71 67 62 60 61 64 66 67 68 69 67 67 71 75 75 76 75
30 33 41 49 55 58 61 68 72 71 70 68 65 70 82 94 101 101 100 100 100 100 100 100 99 96 88 83 83 88 94 99 100 97 93 92 94 93 92 94 94 96 98 96 94 96 97 98 100 99 99 101 99 95 93 95 98 98 94 97 102 97 92 97 101 99 98 98 94 89 84 81 82 83 85 87 87 86 84 83 81 81 81 83 83 82
54 56 65 73 76 76 74 75 77 78 79 78 77 78 81 87 96 100 100 100 100 100 100 100 100 101 98 95 95 96 99 101 100 100 100 100 100 99 98 98 99 100 100 100 102 103 102 100 100 99 101 103 102 101 99 98 98 96 90 91 93 89 88 95 100 99 99 100 99 97 93 90 89 89 91 94 95 91 88 88 88 88 89 90 90 86
78 76 81 83 80 78 77 78 79 82 84 84 84 86 86 86 93 100 101 101 100 100 101 100 100 100 100 100 100 100 100 101 101 100 100 100 100 100 101 100 99 100 101 100 100 101 101 99 98 99 101 102 101 99 95 91 89 86 80 78 80 80 83 91 98 100 100 99 99 99 99 97 94 93 94 96 96 94 91 92 95 96 95 94 92 89
86 84 85 85 80 77 76 79 83 89 92 91 90 93 94 94 97 99 98 100 101 100 101 101 101 101 101 100 100 101 102 102 101 100 100 98 96 97 100 101 100 100 100 100 101 101 100 100 98 97 99 100 99 97 93 87 84 80 76 73 72 72 75 77 81 86 92 95 97 97 98 98 96 94 92 92 94 94 93 93 92 91 90 89 87 85
84 81 80 81 79 76 76 78 81 86 93 96 96 98 100 101 102 101 98 100 102 102 101 100 100 102 102 102 103 103 103 102 103 101 96 91 90 94 98 100 102 100 98 99 101 99 98 100 101 100 99 100 99 98 96 93 89 86 83 79 75 73 73 73 72 74 78 84 89 92 94 96 95 94 92 91 92 94 94 92 90 87 86 85 84 84
78 77 77 77 76 74 75 75 74 75 80 87 91 95 99 101 102 101 100 101 101 101 102 101 100 100 100 101 104 104 102 102 102 98 90 86 88 93 96 98 101 101 99 97 96 94 92 95 98 97 96 95 94 91 89 87 84 82 79 77 75 73 73 75 79 81 83 84 86 87 88 89 90 90 90 89 88 87 85 83 82 80 79 79 80 82
70 71 69 69 70 70 69 69 69 68 70 74 80 87 95 99 101 100 100 101 100 101 101 101 100 100 99 100 102 102 100 100 100 97 95 95 97 99 98 96 94 94 94 93 93 92 91 90 90 89 87 86 84 81 78 76 74 72 70 69 69 68 69 71 76 81 85 87 87 87 85 84 83 81 80 79 77 74 73 73 74 75 76 77 79 80
64 63 62 62 63 63 63 64 65 67 69 73 77 82 89 95 99 99 99 101 101 101 101 101 100 99 98 99 101 101 101 101 100 99 99 100 101 100 98 95 90 84 82 84 88 92 93 90 87 84 81 79 77 75 72 70 67 64 62 61 60 60 60 61 62 64 67 69 70 70 70 69 69 68 67 66 65 64 64 66 69 72 73 73 73 73
44 44 44 43 42 40 40 41 43 46 50 56 63 69 76 82 88 92 94 97 98 99 100 101 101 99 98 97 98 99 100 100 100 100 101 99 97 95 96 97 96 91 87 86 88 92 94 93 89 85 81 78 76 73 71 68 65 63 61 60 59 59 57 57 56 55 55 54 55 55 55 55 56 56 56 56 57 58 60 61 62 63 63 63 63 63
22 23 24 24 23 22 21 21 22 22 24 26 30 36 42 49 56 62 67 73 79 85 91 94 96 97 98 98 98 99 101 101 99 97 95 91 88 89 94 98 100 100 98 97 96 95 95 93 90 87 84 81 78 76 74 70 67 65 64 63 64 63 63 61 60 58 57 56 56 56 56 57 57 58 58 58 58 58 57 56 56 55 55 55 56 58
16 16 16 15 15 16 16 16 16 16 16 17 17 17 19 21 24 28 32 37 44 52 62 72 80 85 89 92 93 95 98 100 100 99 97 92 85 82 82 86 92 96 98 99 99 97 94 90 87 85 84 82 80 79 78 75 73 71 71 71 70 68 67 65 63 61 59 59 59 60 61 62 62 62 63 63 63 62 60 58 57 57 59 60 58 57
13 13 12 11 11 12 11 11 12 12 13 15 15 16 17 17 17 17 18 19 21 25 31 40 49 59 68 74 80 85 90 96 99 100 99 95 89 82 78 79 82 87 89 90 92 93 94 95 94 92 90 88 85 84 82 79 76 75 77 76 73 70 68 65 63 61 58 57 57 57 58 59 59 59 60 60 60 59 58 56 54 51 51 50 48 46
Wind_Speed
31 31 31 29 26 25 25 25 25 26 27 27 26 25 23 21 18 19 23 26 30 32 32 33 34 33 32 30 33 38 40 41 42 42 42 40 38 37 34 32 29 25 25 25 24 20 14 12 14 14 16 14 9 7 8 8 7 9 11 13 13 14 17 19 19 19 19 18 18 17 17 17 16 16 16 16 15 14 14 13 13 12 12 11 10 10
31 31 29 27 26 26 26 26 27 27 27 28 28 27 25 21 18 19 23 26 30 32 31 31 32 31 30 29 31 36 38 39 40 40 39 37 36 35 34 32 29 25 24 24 23 18 14 13 11 10 15 19 16 11 7 7 9 10 11 9 7 11 13 17 19 19 19 20 18 16 16 16 16 16 16 16 15 14 14 14 13 13 12 11 11 11
30 28 25 24 25 26 27 28 28 27 27 27 28 28 25 22 19 20 22 25 28 30 28 28 30 29 26 26 29 33 35 36 36 36 35 33 33 33 32 30 28 25 24 23 21 17 13 13 10 8 9 15 17 17 17 17 15 12 11 9 4 7 10 14 17 18 19 20 19 16 15 15 15 16 17 17 16 15 15 15 14 13 12 12 12 12
28 25 23 24 25 27 28 28 27 26 25 25 26 27 24 21 22 21 21 24 27 27 24 25 27 25 22 24 27 31 33 33 32 31 30 30 31 31 30 29 28 26 24 21 18 15 13 12 10 7 6 10 14 16 16 16 15 12 8 7 5 3 8 12 15 16 16 18 19 18 17 17 17 17 19 19 17 16 16 16 16 15 14 13 13 12
25 23 24 26 27 28 27 25 25 23 22 22 23 24 22 21 22 22 23 26 28 26 22 23 25 22 20 23 26 28 29 28 28 28 28 30 32 31 30 30 29 28 24 20 17 15 14 12 9 6 4 5 11 14 13 12 11 9 6 6 5 4 7 11 13 13 13 16 20 21 20 20 20 21 21 20 19 18 18 18 17 16 15 15 14 13
24 23 26 27 27 27 24 22 22 21 20 19 19 20 21 22 22 23 25 28 27 25 24 25 25 21 19 22 24 25 26 25 26 28 29 31 31 30 30 29 29 27 23 19 16 15 16 12 8 7 5 5 9 13 13 10 7 6 5 5 6 6 7 10 14 16 15 16 20 23 23 24 25 24 23 21 20 20 20 20 19 18 17 16 15 14
22 22 26 26 26 24 22 20 20 20 19 17 18 19 22 23 23 25 27 28 27 26 26 27 26 22 20 21 23 23 24 26 27 29 30 31 31 30 29 28 27 24 20 17 15 15 15 10 6 8 9 9 10 12 13 11 7 6 5 5 7 9 10 11 15 19 19 18 21 24 26 28 27 25 23 22 22 22 22 22 21 19 18 18 17 16
19 22 26 26 24 23 21 20 20 21 19 19 20 22 22 24 26 28 30 30 28 28 28 27 28 24 20 22 23 22 24 28 28 27 28 29 29 28 26 25 23 21 19 16 14 15 13 9 6 8 10 8 9 10 11 11 9 7 6 6 7 10 13 14 15 18 20 20 21 24 27 29 27 24 23 23 24 24 24 23 21 20 19 19 18 17
21 25 27 25 25 23 21 22 23 22 20 21 23 24 24 25 28 30 31 31 30 30 28 27 29 25 21 23 23 23 25 29 26 24 25 26 25 23 21 20 19 19 18 14 13 15 14 9 7 8 8 7 8 9 9 10 9 8 7 7 8 10 12 14 16 17 19 19 20 23 27 27 26 25 25 25 26 25 23 22 21 21 20 19 18 17
25 27 27 27 26 23 22 24 24 21 21 23 24 24 25 27 27 29 31 31 32 31 26 25 28 26 24 24 22 23 28 30 25 23 25 24 21 18 16 16 18 18 17 14 15 16 13 10 9 9 7 7 7 8 8 9 8 8 7 6 6 6 6 8 13 18 19 19 20 23 25 27 27 27 28 27 26 24 23 22 22 22 21 19 19 18
26 27 28 28 25 22 23 25 23 22 23 24 24 24 26 27 27 29 31 31 33 30 22 23 27 28 28 25 22 24 30 31 25 22 25 23 18 16 15 15 16 17 17 17 18 18 16 13 11 9 9 8 8 8 8 9 8 8 7 7 8 8 6 6 11 17 20 20 21 23 25 28 29 29 29 28 26 24 24 23 23 23 21 20 20 19
25 27 27 25 23 23 25 25 23 23 23 24 24 24 25 26 27 29 30 31 31 26 20 23 28 29 30 26 23 24 30 30 25 22 24 23 19 17 16 15 15 15 17 20 21 21 19 16 13 11 11 10 9 8 8 9 9 9 8 8 10 11 10 9 11 17 20 21 22 24 26 28 29 29 28 27 26 25 25 25 24 22 20 19 20 18
25 26 25 23 23 24 24 24 24 23 23 24 25 25 25 25 26 28 29 30 28 22 21 26 29 30 30 26 24 25 28 28 25 24 25 24 23 21 17 16 16 15 16 19 21 20 19 17 15 13 12 11 10 9 9 9 9 10 10 10 11 12 12 12 13 17 19 20 22 25 27 28 28 28 28 27 27 27 25 24 23 21 19 19 20 18
26 26 25 23 22 23 23 23 23 23 24 25 25 25 24 24 26 27 28 29 26 23 24 27 30 32 31 27 25 26 28 27 25 25 26 26 26 25 22 20 19 18 17 19 20 20 20 19 17 14 12 11 11 11 10 10 10 10 10 11 12 12 12 13 15 16 18 20 23 25 25 27 27 28 28 28 28 27 25 23 21 20 21 21 21 20
26 26 25 23 22 23 22 22 24 25 26 26 26 24 22 23 25 25 25 26 26 26 28 27 31 33 31 28 25 26 28 28 26 26 27 27 27 26 24 22 21 20 20 21 22 21 20 18 16 15 14 13 13 12 12 12 11 11 10 11 12 12 12 14 15 17 18 21 23 24 24 25 26 27 28 28 28 26 24 23 21 21 23 23 22 20
26 27 26 24 24 24 23 23 26 27 27 27 26 26 23 22 23 23 23 23 23 27 29 28 31 33 31 29 26 26 27 27 27 27 28 28 27 25 24 23 23 23 25 26 26 25 22 18 17 17 15 15 13 11 12 13 12 12 12 11 11 13 14 15 16 18 20 22 23 23 24 24 24 26 27 28 28 25 24 22 20 22 24 23 21 19
27 26 26 26 26 25 25 25 26 27 27 26 26 25 23 22 22 21 21 21 21 24 27 28 30 33 32 31 29 27 26 27 27 28 28 29 28 27 26 26 28 30 32 32 31 31 27 21 20 19 17 15 13 11 11 12 13 13 12 11 12 14 16 18 20 21 22 24 25 24 24 23 23 24 26 28 27 24 21 19 19 22 23 22 20 19
27 26 26 27 27 27 28 27 26 26 26 25 24 24 23 23 22 21 19 19 20 21 24 26 29 33 34 33 31 29 28 27 28 28 29 30 29 29 30 31 33 36 36 36 37 37 31 25 22 20 18 15 13 12 12 12 13 14 13 12 13 15 18 21 24 24 25 26 26 26 24 22 20 22 24 26 24 21 19 18 19 21 21 20 20 19
27 27 27 28 28 29 30 28 27 26 25 25 24 23 23 21 20 20 20 20 20 20 22 24 27 31 34 34 32 30 29 29 30 31 31 31 31 31 32 32 34 37 38 38 36 34 31 25 21 19 17 15 13 13 13 12 13 14 14 14 16 19 22 25 25 26 27 28 26 24 22 19 18 20 22 24 22 20 19 19 19 20 20 20 20 20
27 26 26 28 29 30 30 29 27 26 25 25 24 24 24 22 21 21 22 21 21 21 22 23 25 28 31 34 33 32 30 30 30 31 32 32 32 31 30 28 28 29 31 34 33 30 28 23 19 18 16 15 15 15 14 14 15 15 14 16 20 22 24 25 25 25 25 24 22 20 18 17 17 19 21 22 21 19 18 17 19 20 21 21 21 22
26 26 25 27 29 30 30 30 29 28 27 25 25 25 25 24 24 24 24 23 23 23 23 24 25 25 27 30 33 33 32 31 30 30 29 30 31 32 28 25 25 26 27 30 32 31 27 21 19 19 18 18 19 18 17 17 16 15 15 15 17 20 21 22 22 21 20 19 19 18 17 17 18 19 21 21 19 17 15 15 17 18 19 20 20 22
27 27 26 27 29 30 31 31 30 30 30 29 27 26 25 26 26 27 26 24 23 24 24 25 25 24 25 28 30 32 33 33 32 31 30 30 32 33 32 27 24 23 24 28 29 29 25 21 20 20 19 20 21 19 18 16 15 15 16 15 16 17 19 19 17 17 18 19 20 19 19 19 18 19 20 19 18 16 15 15 15 15 16 17 18 19
29 28 27 28 29 30 31 32 30 30 32 32 30 27 26 27 28 28 27 25 24 24 25 25 26 25 24 26 28 30 31 32 32 31 30 29 28 30 30 27 23 20 22 26 26 24 22 19 17 16 16 16 18 18 19 19 17 16 17 18 18 19 21 20 19 20 21 21 21 19 18 17 18 19 19 19 19 17 16 15 14 13 13 14 16 18
28 28 28 28 30 31 31 32 31 30 31 32 31 29 28 28 28 27 27 26 26 25 25 26 26 26 25 26 27 27 27 28 27 27 26 25 26 26 23 20 20 17 18 22 23 22 21 20 17 16 16 15 16 17 20 22 21 19 19 19 19 20 21 21 21 22 22 22 22 20 17 16 17 19 19 19 19 19 18 17 15 15 15 15 17 18
28 28 28 28 30 31 33 33 32 30 30 31 31 30 29 29 28 28 28 28 27 26 26 26 25 25 25 26 26 25 24 23 22 22 21 21 24 24 21 20 20 19 18 19 20 20 20 18 18 18 18 17 16 17 19 23 23 20 20 21 20 20 21 22 21 21 21 22 23 21 18 16 16 17 19 20 20 20 21 20 18 18 18 18 19 21
28 28 28 29 31 32 33 33 31 30 30 31 32 31 30 29 29 29 29 29 29 28 27 27 25 24 23 23 25 25 24 24 22 20 19 18 20 21 21 22 22 21 20 17 17 17 16 14 15 16 18 17 16 16 19 22 22 20 21 22 21 20 21 23 22 21 21 22 22 20 17 16 16 17 19 19 19 20 21 22 22 21 20 19 20 21
25 26 27 29 31 32 33 32 31 30 31 32 32 31 30 29 28 29 29 30 31 30 29 29 26 24 22 22 23 24 25 25 23 21 19 18 18 18 17 16 15 16 16 15 14 15 14 13 13 14 16 17 15 14 17 21 21 19 20 21 21 21 22 23 21 19 20 21 22 20 18 18 19 20 20 20 20 19 19 21 23 23 23 22 20 20
23 24 26 29 32 33 34 34 32 31 31 32 32 32 30 29 28 28 29 30 31 31 31 31 28 26 24 22 22 23 25 24 23 21 20 18 18 17 14 12 10 9 12 13 13 13 12 12 12 11 12 14 14 14 16 20 20 19 20 20 21 22 23 23 20 19 20 21 22 22 20 20 20 21 22 21 20 20 19 20 23 24 25 23 20 20
23 23 24 27 29 30 32 34 32 31 31 32 32 32 32 31 30 29 29 30 31 31 32 33 31 29 26 24 23 23 24 23 21 20 19 19 19 18 15 13 10 8 9 9 9 9 8 8 9 9 9 11 12 13 16 19 20 18 18 19 21 22 22 22 21 22 22 23 23 23 22 22 21 22 23 22 21 23 24 24 24 25 26 23 20 18
24 22 22 24 25 24 26 29 30 31 32 33 33 33 33 32 31 31 30 30 31 31 32 33 33 32 29 27 25 24 23 22 20 19 18 17 17 16 15 14 12 10 9 9 8 9 9 9 9 10 11 12 12 14 17 20 19 18 18 20 22 22 21 22 22 21 22 22 22 22 22 23 22 23 24 23 22 23 24 23 22 22 22 20 18 18
24 20 19 20 22 22 23 26 28 30 31 33 34 34 34 34 32 31 30 31 31 31 31 32 33 33 32 30 28 27 25 23 20 19 19 17 16 14 13 13 13 12 12 12 13 13 13 13 13 13 13 14 15 17 18 19 20 19 18 19 21 20 20 20 20 20 21 21 21 21 21 22 22 22 22 22 21 21 21 21 21 21 21 19 18 18
26 22 19 18 19 20 23 24 27 29 31 32 34 35 35 34 33 32 31 31 31 31 31 31 32 32 32 31 31 29 27 24 21 20 20 19 18 17 17 16 16 15 14 14 16 17 16 16 16 16 16 16 17 18 18 18 19 19 18 18 17 17 18 19 19 20 20 20 20 20 19 19 21 23 23 22 22 22 21 21 21 22 22 21 21 21
28 26 23 20 18 19 21 24 26 27 29 32 34 35 35 34 33 32 32 32 32 32 31 31 32 32 32 31 31 30 28 26 23 21 19 18 18 18 19 19 18 17 16 16 18 19 19 18 18 18 17 17 18 18 18 18 19 19 20 19 18 18 19 21 21 21 21 21 21 21 21 21 22 22 23 23 22 22 22 22 21 22 23 24 23 22
27 26 26 24 21 17 16 18 22 25 28 30 31 31 33 34 33 32 32 32 31 31 32 32 32 31 31 32 32 31 30 28 26 24 22 21 20 18 18 19 18 18 19 18 19 22 21 19 18 19 20 19 18 18 18 18 19 21 22 22 21 21 22 23 25 25 25 24 23 23 25 25 25 23 23 23 24 23 22 22 23 24 24 24 23 23
22 22 23 24 24 20 16 14 14 16 19 22 25 27 29 31 33 33 33 33 31 30 30 32 33 32 31 32 33 33 33 31 29 27 25 24 23 22 22 22 21 21 22 21 20 23 23 20 19 21 21 19 17 18 19 20 21 22 23 24 23 23 24 25 25 25 25 25 24 24 25 26 26 26 25 25 25 25 24 24 24 24 24 24 24 24
22 20 20 22 24 23 22 20 17 14 13 14 17 22 26 28 29 31 32 33 33 32 30 30 31 31 32 33 33 33 33 31 29 28 27 27 27 25 23 21 21 22 24 24 25 27 26 22 21 22 22 20 19 20 21 22 23 24 24 24 23 24 23 23 24 24 25 25 24 25 26 27 27 28 28 28 28 27 26 26 26 26 26 26 26 26
27 23 22 22 24 26 26 25 24 22 19 17 16 15 18 20 22 24 26 29 31 33 33 32 32 32 33 33 33 33 32 31 29 27 27 27 27 25 22 21 22 22 23 26 29 31 30 27 26 26 25 23 22 21 22 23 23 23 24 24 24 23 22 22 24 25 25 26 26 27 28 28 28 29 30 31 31 29 27 27 28 28 28 28 28 28
31 30 27 25 25 27 28 27 27 26 25 23 19 15 13 14 16 17 20 24 28 31 33 34 35 36 35 34 33 32 31 30 30 28 27 27 27 26 25 24 24 24 25 29 32 32 30 27 26 26 26 25 24 23 24 24 24 25 25 25 25 23 21 21 23 24 24 26 27 28 29 30 30 31 32 32 32 30 30 30 30 29 29 29 29 30
28 30 30 27 25 25 26 25 24 24 23 22 21 18 16 14 13 14 16 18 21 24 27 29 31 34 36 36 35 34 31 30 29 28 28 29 31 31 30 26 25 27 30 34 37 36 32 29 28 28 29 29 28 27 27 26 27 27 27 28 27 25 22 20 22 25 26 25 26 27 28 29 30 31 32 31 31 31 30 30 30 30 30 30 31 32
23 24 24 23 22 22 22 21 21 20 19 19 19 19 19 15 12 13 17 18 18 19 22 25 27 30 33 35 36 36 34 32 29 26 25 26 29 32 31 28 29 30 29 31 37 37 34 31 31 31 31 31 30 30 29 29 29 27 27 28 29 29 28 26 25 26 26 26 25 25 26 27 29 31 32 32 31 30 30 31 32 33 33 34 34 34
20 20 19 19 18 18 18 18 18 18 17 17 17 17 18 18 16 17 18 19 20 20 20 22 25 27 29 32 34 35 34 32 28 23 22 23 26 29 31 32 32 29 24 24 30 34 34 33 33 32 32 32 31 31 32 32 31 29 28 27 28 30 32 32 29 27 27 27 26 26 27 28 31 33 34 33 32 31 31 32 33 35 35 35 35 35
16 17 17 16 16 16 16 16 15 16 16 16 16 16 17 18 20 21 19 18 18 19 19 20 22 24 25 27 29 30 30 30 28 26 26 27 28 28 30 33 32 26 21 21 23 25 28 29 30 31 31 31 31 31 32 32 32 30 29 29 30 31 33 35 36 35 34 33 32 31 31 32 34 36 37 38 38 37 37 37 37 39 39 40 40 40
13 14 14 15 15 16 16 15 14 14 14 15 16 17 17 18 21 24 23 21 19 18 18 18 20 22 23 24 25 27 28 29 30 31 32 33 33 32 32 34 34 29 26 25 25 24 24 24 24 26 26 27 28 29 29 30 30 30 31 32 33 34 36 38 40 41 41 41 41 41 40 41 42 43 45 46 47 46 45 44 45 46 47 47 47 47
12 12 13 13 14 15 15 15 14 14 15 15 16 17 17 18 19 22 24 24 23 21 19 17 18 21 23 24 25 26 27 28 28 30 33 35 36 36 36 37 37 36 36 36 35 34 32 29 27 26 27 27 29 30 31 32 33 34 35 36 37 38 39 41 43 44 45 45 46 47 47 48 48 49 49 50 51 50 50 49 50 50 51 51 51 51
11 12 12 12 13 14 14 15 15 16 17 17 17 18 18 19 20 20 22 23 23 23 23 22 21 22 24 25 27 27 25 25 26 28 31 33 33 33 35 36 37 38 39 39 38 36 36 35 32 30 29 29 30 31 32 33 34 35 36 38 39 40 41 43 44 45 46 47 48 49 49 50 50 50 51 51 52 52 52 52 52 52 53 53 53 53
10 11 11 12 13 13 14 15 16 17 18 18 19 20 20 20 21 21 22 23 24 24 25 26 26 25 25 25 27 28 26 26 27 28 30 31 31 32 33 34 36 37 37 36 35 34 33 33 32 31 30 30 30 31 31 31 32 33 33 34 35 36 38 39 40 42 43 45 46 47 48 49 50 50 51 51 51 51 52 52 52 52 52 52 52 52
10 11 12 12 13 13 14 15 16 17 18 19 20 21 22 22 23 23 24 24 25 25 26 28 29 29 29 27 27 28 29 29 30 30 31 32 34 34 35 35 36 37 37 36 34 33 32 31 31 31 31 31 32 32 32 32 32 33 33 33 34 35 36 37 37 39 40 41 42 43 44 45 46 47 48 48 49 50 50 51 51 52 52 52 53 53
9 10 11 12 12 13 14 14 15 17 18 19 20 21 23 24 25 25 26 26 26 27 27 28 29 30 32 31 31 31 32 33 33 34 34 35 36 36 36 35 35 36 37 37 36 35 34 33 33 33 34 34 34 34 34 35 35 35 35 35 36 36 37 37 38 39 39 40 41 42 43 44 45 46 46 47 48 49 50 50 51 52 52 53 53 53
7 8 9 10 11 12 13 14 16 17 17 19 20 21 22 24 25 26 27 28 28 28 29 29 30 30 31 33 33 34 34 35 37 38 40 40 40 40 39 37 37 37 38 38 38 38 38 37 37 37 38 38 38 39 39 39 39 38 38 38 38 38 38 39 39 40 41 42 43 43 44 45 46 47 48 49 50 51 51 52 52 53 54 54 54 54
7 8 9 10 11 12 13 14 15 16 17 18 20 21 22 23 24 25 26 27 28 29 30 31 32 32 33 34 34 35 36 37 38 40 41 42 43 44 44 44 43 43 42 41 41 41 41 41 41 41 41 41 41 41 41 41 40 40 40 40 40 40 41 42 43 43 44 45 46 46 47 48 49 49 50 51 52 53 54 54 54 55 55 56 56 57
7 7 8 9 9 10 11 12 14 15 16 17 19 20 21 22 24 25 26 26 27 29 30 31 33 34 35 36 36 36 37 38 39 40 41 43 44 46 47 48 47 46 45 44 43 42 41 41 41 42 42 42 42 42 42 42 42 41 42 42 43 44 44 45 46 47 47 48 48 49 50 50 51 52 52 53 54 55 56 57 57 58 58 58 59 59
Wind_Direction
254 253 249 242 239 241 243 244 244 244 245 245 246 248 246 240 233 232 234 234 236 237 237 239 241 243 243 241 241 244 246 248 250 251 251 252 254 258 260 256 249 244 241 241 245 247 251 278 294 277 264 271 271 247 227 234 266 283 284 276 253 242 247 241 226 221 225 225 229 233 231 226 221 219 214 208 206 208 209 211 213 213 214 219 225 231
253 253 248 240 238 240 240 242 245 247 248 246 245 246 247 244 235 234 238 237 239 241 240 242 245 244 243 243 244 247 249 250 252 254 256 257 258 257 255 251 249 243 240 240 242 249 256 268 296 299 279 281 282 278 286 301 317 335 341 323 255 232 239 236 228 226 225 225 228 232 230 225 223 220 211 204 204 205 205 207 208 209 213 219 224 229
252 252 246 239 237 237 238 242 246 247 248 248 247 244 245 246 238 232 238 241 243 245 243 245 248 246 244 243 245 247 250 251 253 256 258 257 255 251 248 248 249 244 238 240 242 250 261 267 288 306 295 295 293 289 295 300 309 326 339 339 299 234 232 233 233 231 226 225 226 228 226 223 223 217 207 204 208 208 204 204 206 210 214 221 226 229
249 246 240 235 233 234 237 242 244 246 248 249 249 245 242 245 241 234 237 243 246 248 246 245 247 246 243 241 242 245 248 251 253 254 253 250 246 243 243 243 243 239 234 236 240 250 262 267 279 298 298 296 298 303 307 308 314 325 325 324 324 242 228 236 239 233 227 224 223 225 227 224 220 215 211 213 217 216 212 208 208 210 213 217 223 227
245 239 233 229 228 231 235 239 243 247 249 250 251 247 241 242 243 237 237 241 245 249 248 247 247 242 236 237 241 245 248 250 251 250 248 245 243 241 240 239 239 237 231 231 236 246 256 257 266 288 303 285 288 300 312 315 316 321 315 300 298 261 233 236 237 235 231 226 223 225 228 227 222 218 218 220 221 221 221 216 210 210 211 214 218 222
238 232 231 226 226 232 234 238 243 247 250 251 252 248 239 237 239 238 238 240 243 248 249 248 247 239 231 235 241 246 248 246 246 245 243 244 245 243 240 239 240 240 234 231 236 242 246 250 264 283 286 278 284 291 299 308 308 303 297 279 276 272 253 239 238 239 236 229 225 224 224 224 224 222 221 222 223 225 225 221 216 213 213 215 216 217
232 228 230 226 227 231 232 236 242 246 248 248 245 241 235 233 235 238 240 240 239 242 243 247 249 241 231 236 240 242 242 240 237 236 238 241 243 241 238 237 239 238 233 228 232 236 242 251 268 291 289 275 276 280 282 289 289 279 277 266 263 266 261 250 241 239 235 230 227 224 222 223 225 225 224 225 225 226 229 228 224 220 219 219 217 215
228 226 228 227 228 230 231 236 239 240 241 240 238 235 232 230 232 235 237 238 237 236 237 242 249 246 234 234 239 239 234 229 226 227 232 238 242 242 238 235 233 232 229 228 231 231 234 243 263 295 297 271 264 269 269 275 277 273 276 270 263 262 260 254 243 234 231 230 228 225 224 225 226 227 227 228 228 228 230 231 229 226 224 224 222 218
223 223 225 226 227 228 232 236 237 236 237 238 236 234 232 230 231 234 237 239 239 237 235 237 245 248 241 236 238 238 227 217 215 221 230 236 241 243 240 235 231 230 230 232 238 235 230 239 266 289 289 266 262 266 262 265 265 267 275 279 276 267 255 246 238 226 220 222 225 227 226 225 224 225 226 228 229 230 231 231 229 226 224 226 226 222
226 225 224 225 226 227 231 234 235 236 238 239 238 235 235 234 234 236 238 239 241 240 236 237 242 244 243 240 237 234 219 210 215 225 228 232 236 238 238 237 235 236 238 241 246 244 240 249 267 277 278 264 255 256 260 262 260 260 269 273 266 254 242 235 228 219 215 218 224 226 226 224 223 224 225 228 230 231 231 229 226 226 228 230 230 226
228 227 226 227 227 227 231 234 236 236 238 241 241 240 240 239 239 240 241 241 242 243 238 237 239 238 241 240 236 230 215 210 220 227 225 226 227 228 231 236 238 240 243 244 246 249 253 257 262 268 267 252 238 239 248 252 250 249 253 251 236 231 244 245 226 220 220 222 223 224 224 224 225 227 229 232 233 232 231 229 228 231 234 234 231 226
229 228 230 230 229 230 233 236 238 238 240 243 244 244 243 242 241 242 243 243 244 243 235 231 230 233 239 238 232 227 216 213 220 221 219 220 220 223 229 234 238 242 244 244 245 249 254 257 256 255 248 240 236 235 234 236 238 238 240 242 236 237 250 248 226 219 221 223 222 221 224 227 228 230 232 234 235 234 233 233 234 236 238 234 229 225
231 229 230 230 229 231 233 237 239 240 242 243 243 243 241 240 242 243 244 245 246 241 232 226 222 226 236 236 228 224 219 219 221 218 217 219 220 223 230 235 237 239 242 243 244 246 246 245 241 237 234 239 246 239 230 229 233 237 238 238 235 237 244 240 222 214 216 220 221 222 225 228 230 230 232 235 236 237 236 236 237 238 236 231 226 221
228 227 228 228 228 229 233 236 238 239 240 241 241 239 237 238 241 244 246 248 247 240 233 226 218 222 232 234 228 221 220 222 222 220 222 223 225 228 234 240 239 238 240 242 242 241 241 241 239 237 240 248 249 239 234 232 232 236 235 231 232 231 233 231 218 210 211 215 219 222 225 228 230 231 233 236 237 238 237 237 238 236 233 228 222 218
226 224 223 223 224 226 229 231 232 233 235 237 237 236 235 237 239 242 244 247 246 239 234 226 217 221 229 232 229 221 219 223 225 226 228 230 233 236 240 243 241 240 240 242 243 242 243 245 243 247 254 258 253 241 236 236 233 232 226 222 226 220 217 222 216 207 207 210 216 221 225 227 230 232 234 236 236 236 237 238 238 235 231 225 219 215
225 224 221 218 220 222 223 224 227 231 234 236 239 240 239 238 238 239 242 245 245 242 238 228 218 221 227 229 229 224 220 223 228 230 234 239 240 241 243 243 242 241 239 241 242 239 238 238 233 237 247 257 257 243 237 238 236 234 228 222 222 216 213 218 216 208 205 207 211 215 219 223 227 231 233 235 234 234 235 237 236 233 229 225 219 216
222 222 221 219 220 221 222 224 226 230 234 237 242 244 241 238 238 241 244 244 244 243 240 233 222 221 225 228 228 227 224 223 227 232 236 241 243 244 244 243 239 236 232 232 231 229 230 229 223 226 235 244 248 242 239 243 242 241 236 229 226 221 218 219 220 216 210 206 206 207 211 217 223 228 231 233 233 232 234 234 232 231 230 227 223 220
218 216 218 221 220 221 223 224 227 230 232 234 237 237 237 239 240 244 248 247 245 242 239 236 228 222 224 227 228 229 227 225 227 231 235 240 245 250 254 255 251 243 235 227 222 220 222 221 215 217 227 235 240 241 242 245 247 246 243 239 233 226 221 221 222 220 213 208 205 205 209 214 220 226 231 233 231 229 231 231 229 230 232 232 230 226
217 213 215 220 220 222 224 224 226 229 230 229 228 228 231 236 240 243 247 248 248 244 240 237 232 227 226 229 231 232 230 229 228 230 234 240 246 252 261 265 261 252 240 230 224 221 219 221 221 222 229 235 240 243 245 248 249 249 248 244 236 226 220 220 222 219 213 209 207 207 211 215 219 224 227 227 228 231 235 235 234 235 237 238 238 234
221 214 215 219 220 222 223 222 222 223 223 224 224 225 227 229 230 234 240 244 246 246 245 242 237 233 231 231 234 235 235 235 233 234 237 241 246 252 259 263 256 247 236 229 228 223 220 226 233 234 236 240 245 251 257 259 257 254 251 243 233 222 214 212 214 211 206 205 209 212 214 215 216 218 219 222 228 235 240 242 243 243 242 242 241 239
226 217 215 219 220 220 220 220 217 215 217 220 223 225 227 227 226 229 234 239 242 243 245 245 242 239 237 237 237 238 241 241 240 242 245 249 252 250 251 255 251 244 232 224 221 217 219 229 236 238 242 242 245 255 262 265 264 261 254 242 228 215 207 206 207 203 197 200 208 211 211 213 213 213 217 222 227 231 236 243 245 244 243 242 241 240
228 220 216 218 219 218 219 220 218 214 216 220 222 224 227 227 227 230 234 240 244 246 246 248 247 244 242 241 241 241 244 245 248 252 256 259 258 252 251 253 251 242 226 216 214 213 221 237 241 242 243 240 241 248 254 258 261 257 246 231 221 213 208 210 212 206 201 205 210 208 207 209 211 215 220 223 226 230 236 241 243 244 243 240 239 239
229 222 217 217 219 219 221 223 221 217 218 221 223 224 228 229 231 233 235 239 244 248 250 251 252 250 247 245 245 245 247 250 254 257 260 263 260 257 257 250 241 236 225 220 221 221 229 243 247 245 242 237 236 239 245 248 248 244 232 219 216 213 210 212 214 211 209 212 216 214 210 211 214 221 225 227 231 234 236 239 239 240 240 237 236 238
230 224 219 218 220 221 222 224 224 221 221 223 226 227 229 232 234 234 235 237 241 245 248 251 254 255 254 252 250 252 253 255 258 259 263 264 256 255 258 245 230 231 230 229 232 233 238 246 251 253 250 244 240 239 241 242 240 234 221 212 213 214 212 215 215 212 211 213 217 219 221 221 222 227 231 234 237 236 233 235 235 235 238 240 241 242
230 226 222 221 222 222 224 226 226 225 224 226 227 228 230 232 234 235 234 236 239 243 245 249 254 257 259 256 253 253 254 255 259 261 264 263 253 250 256 248 237 237 236 236 238 239 241 244 249 253 250 246 246 247 243 237 235 231 217 208 210 214 218 220 220 220 219 215 215 219 224 227 230 235 238 239 240 238 236 237 237 238 241 245 250 251
233 229 225 224 226 227 228 230 230 229 229 229 229 230 230 232 235 236 236 237 239 242 244 246 250 255 259 258 254 253 253 256 262 265 264 257 249 250 252 243 236 236 236 235 236 235 236 240 246 251 246 240 240 242 237 229 226 222 214 210 213 218 222 222 223 228 229 221 217 220 230 239 240 241 240 240 242 243 242 242 241 243 245 250 255 257
239 237 230 228 230 230 231 232 232 232 232 232 232 232 233 234 236 238 239 240 240 242 244 245 247 249 253 255 255 254 255 258 261 263 263 259 256 261 258 244 231 222 219 221 227 231 236 241 247 249 242 231 226 224 222 220 219 214 211 213 218 223 225 222 220 226 230 228 226 231 241 245 241 239 238 239 242 245 246 243 241 243 247 251 256 258
245 244 238 234 236 235 232 230 231 232 233 234 234 234 235 236 237 239 241 242 242 243 244 246 247 247 247 250 253 253 254 256 258 259 262 263 264 270 270 263 250 220 214 223 228 231 238 240 241 243 234 222 218 219 218 217 215 211 209 213 217 217 216 215 218 229 233 230 230 234 238 239 239 239 237 237 241 246 251 249 244 244 245 246 250 253
251 248 244 241 243 242 232 227 230 233 234 235 236 236 236 237 238 240 242 245 246 245 246 247 249 249 248 248 251 252 251 252 254 258 261 263 266 268 266 264 261 237 229 237 230 222 226 228 234 241 238 231 230 228 219 210 207 209 211 212 214 215 215 219 229 238 239 236 234 236 238 240 245 246 246 247 249 251 256 258 254 251 247 243 242 246
253 250 245 242 245 244 233 227 230 234 236 237 238 239 239 240 240 241 244 247 249 249 249 249 250 250 248 247 250 252 251 251 254 258 262 264 265 263 256 255 256 247 246 255 252 241 235 239 250 251 246 244 236 224 214 209 216 229 230 222 222 226 229 232 236 240 240 238 236 236 238 242 246 250 254 257 253 248 251 255 256 257 256 248 240 241
249 246 242 240 241 241 237 233 234 237 239 240 240 241 242 242 242 242 244 247 251 253 253 252 251 251 250 250 251 253 253 255 259 262 264 265 263 257 250 251 256 257 258 256 251 250 249 252 257 254 248 244 233 225 223 223 230 240 236 226 227 229 229 230 232 233 235 235 235 236 239 243 244 246 250 250 246 243 245 248 251 256 258 252 240 238
242 242 240 239 240 241 240 238 237 238 240 241 241 240 240 242 242 242 243 246 250 254 256 256 255 253 252 253 254 255 256 258 262 266 268 267 265 262 260 262 264 264 262 254 248 250 252 251 253 253 250 243 232 226 225 225 228 231 227 223 225 225 225 227 228 228 228 228 229 233 238 242 244 242 240 238 239 241 242 245 247 250 250 243 234 235
242 245 245 243 244 244 242 241 241 240 241 242 243 240 239 240 241 242 242 244 247 252 256 258 258 257 256 258 258 258 258 260 262 265 266 264 264 263 262 262 263 261 260 254 250 251 250 247 248 249 243 234 226 220 219 221 225 228 226 225 227 228 228 229 231 231 231 231 234 238 240 241 242 242 238 236 239 242 243 245 247 246 241 234 231 237
238 241 244 244 244 244 243 243 243 243 245 247 248 244 240 239 240 243 244 243 245 249 252 255 257 258 259 261 261 260 261 261 262 262 262 262 261 259 259 259 259 259 260 257 252 248 243 237 235 232 225 219 217 218 222 227 230 231 232 233 234 234 232 232 234 237 239 242 244 244 243 242 241 242 242 240 241 246 250 253 251 245 240 237 239 249
230 229 232 236 240 244 249 251 250 251 253 255 253 248 242 240 241 244 246 246 246 247 249 252 254 256 258 259 259 260 261 262 263 261 259 259 259 259 260 259 258 260 263 259 247 235 229 226 224 222 217 215 219 227 233 236 236 236 237 238 238 234 231 231 234 237 240 243 243 241 241 242 243 245 247 248 249 253 258 259 253 246 245 248 254 260
239 234 230 234 240 248 255 260 263 267 273 275 267 255 247 246 245 246 248 249 247 246 246 249 251 254 257 257 257 257 258 260 262 260 258 258 259 257 254 251 254 260 262 255 240 228 227 230 227 222 221 225 230 234 238 239 240 239 238 238 238 234 230 228 231 234 235 237 238 239 240 242 244 246 249 251 254 256 258 257 254 252 254 258 259 259
246 247 245 243 247 253 259 263 265 267 272 281 285 272 256 250 250 250 251 251 249 246 245 246 249 252 255 256 256 256 258 260 259 258 258 259 255 248 243 248 256 259 255 247 237 230 230 231 226 222 226 230 230 231 237 239 238 237 239 239 238 236 233 230 228 230 232 234 236 238 241 242 245 246 248 250 252 253 253 252 252 254 257 258 257 256
245 248 250 251 252 255 261 265 267 268 270 274 277 274 261 251 247 244 243 243 244 242 242 245 248 247 246 248 252 253 254 257 257 254 254 254 249 245 248 257 263 259 249 240 232 226 223 220 217 218 223 226 226 230 237 238 233 231 234 238 237 235 234 234 233 233 234 236 237 238 241 243 245 247 248 250 252 253 252 252 253 255 256 256 256 256
244 246 248 252 254 255 259 264 267 268 270 271 269 265 259 250 240 233 231 230 232 234 236 239 244 243 239 238 243 247 247 251 255 256 253 252 251 250 252 255 255 251 244 236 229 226 221 215 214 218 222 225 229 233 234 233 229 228 230 234 236 233 230 234 240 242 240 239 239 239 241 243 245 248 250 251 253 253 253 253 254 255 258 260 261 262
242 242 243 244 247 249 253 259 262 263 264 265 262 257 255 248 231 221 224 223 221 226 230 231 235 239 237 235 239 243 244 248 253 254 249 248 248 246 242 237 233 229 225 223 223 222 220 218 220 224 226 228 230 231 230 228 228 230 233 236 237 235 229 227 233 240 240 238 238 238 241 245 248 250 251 252 253 254 254 254 255 256 258 261 263 264
233 233 233 234 238 243 246 250 253 255 256 257 255 251 249 244 230 218 217 214 214 221 227 228 230 233 234 234 236 239 242 243 242 235 228 230 236 233 225 218 215 210 204 208 216 218 219 223 226 228 228 228 228 228 228 229 230 234 238 240 241 240 236 234 238 244 244 241 239 238 240 245 248 250 252 252 252 254 256 256 257 258 259 259 260 261
224 226 229 231 235 240 243 245 247 249 250 249 249 248 244 240 235 229 222 213 209 213 220 225 228 229 228 229 232 234 235 232 226 219 216 219 223 224 218 213 211 208 203 206 212 214 217 221 225 227 228 229 230 231 231 232 234 237 241 244 245 245 243 243 247 251 251 249 248 245 244 246 249 252 254 254 255 256 257 257 258 260 261 261 261 262
226 229 231 233 235 239 242 242 241 244 247 245 243 243 241 237 235 235 234 230 223 217 217 223 230 232 230 229 230 231 230 228 225 226 228 226 226 227 225 220 219 222 228 233 237 236 231 228 226 227 229 230 231 233 233 234 238 242 245 248 249 249 249 250 252 254 254 254 253 252 251 252 253 254 255 256 257 259 259 259 260 261 263 265 265 266
231 235 237 238 239 240 242 241 238 240 245 247 243 241 241 239 236 235 237 238 236 230 222 220 226 231 231 230 231 232 232 232 232 234 236 235 234 235 236 234 233 237 243 249 253 254 252 249 244 240 239 239 239 240 241 243 245 248 250 251 250 250 251 252 252 254 254 255 255 255 255 255 256 256 256 256 257 259 260 261 261 262 263 265 266 267
235 238 241 243 244 245 246 246 246 245 247 248 247 244 243 243 242 239 238 238 239 235 227 220 221 226 227 228 230 231 230 230 233 237 239 240 240 240 242 244 245 245 247 250 253 254 253 254 253 252 250 249 247 247 248 249 249 250 250 251 251 252 252 252 252 252 254 255 256 256 256 256 256 256 256 257 258 259 261 262 263 263 264 265 267 268
243 244 247 248 250 251 251 250 250 249 248 247 247 246 245 244 243 243 241 238 237 236 231 226 226 227 227 226 226 226 223 223 228 236 240 243 244 243 243 244 245 246 248 250 252 252 250 250 252 253 253 252 252 251 250 250 250 251 251 251 251 251 252 252 253 253 254 255 256 256 257 257 258 258 259 260 261 262 263 264 265 266 266 267 267 268
250 251 252 253 253 253 254 253 251 251 250 248 247 246 245 244 243 243 243 241 239 237 234 232 231 231 231 229 227 226 224 223 225 231 237 240 242 243 243 243 244 247 250 253 255 257 257 256 256 256 255 255 255 254 252 251 251 251 251 251 250 250 251 252 252 253 254 255 256 257 258 258 259 260 261 261 262 263 263 264 264 265 265 266 267 268
252 254 254 255 256 256 256 256 256 255 254 252 250 249 249 249 248 246 246 245 244 242 240 238 236 234 233 233 233 232 232 231 230 232 235 238 239 241 242 244 246 249 252 254 256 257 258 260 261 262 261 260 259 259 258 257 257 257 257 256 255 254 254 254 255 255 256 256 257 258 259 260 261 261 262 262 263 263 263 264 264 265 266 266 267 268
256 259 259 260 260 260 260 260 260 260 259 257 256 254 253 253 253 252 252 251 250 248 247 245 243 240 237 236 235 234 235 235 236 237 238 239 241 243 244 246 249 253 256 257 259 259 259 260 261 262 262 262 262 262 262 262 262 262 262 262 261 261 261 261 260 261 261 261 262 262 262 263 263 263 264 264 265 265 265 266 266 267 268 268 268 268
267 268 270 272 272 271 271 269 267 266 265 263 261 259 257 256 256 256 255 254 253 251 249 248 247 246 244 242 240 239 238 237 237 239 240 241 243 244 246 247 249 252 255 257 260 262 263 263 263 263 262 262 262 263 263 263 264 264 264 264 265 265 265 266 266 266 266 266 266 266 266 266 266 266 266 267 267 268 268 268 269 269 270 270 270 270
281 283 286 287 287 286 284 282 278 275 272 269 267 265 263 261 259 258 257 256 255 253 251 250 248 248 247 247 246 245 244 243 243 243 244 245 245 246 248 249 252 254 256 258 260 261 262 264 265 265 265 265 265 265 265 266 266 267 267 266 267 267 267 268 268 268 269 269 269 269 269 269 269 269 270 270 270 271 272 273 273 272 272 273 274 275